Location: Acequia del Cap
(41.7000°N, 0.6167°E)
Time: 16:59:11
(UTC+00:00)

Cosmos 2237 Rocket - Pass Details

Date: 07 August 2020
Orbit: 836 x 848 km, 71.0° (Epoch: 22 September)

Event Time Altitude Azimuth Distance (km) Brightness Sun altitude
Rises 02:34:32 0° 325° (NW) 3,404 5.5 -22.3°
Reaches altitude 10° 02:37:17 10° 314° (NW) 2,463 4.7 -22.0°
Enters shadow 02:40:54 26° 276° (W) 1,605 3.3 -21.5°
